{"data":{"norad_id":37744,"epoch":"2026-05-25T04:52:25.427712Z","epoch_age_seconds":57373,"freshness":"FRESH","line1":"1 37744U 11033F   26145.20307208 -.00000099  00000+0  23938-4 0  9990","line2":"2 37744  51.9921 219.7866 0000568 110.0774 268.4068 12.62266572687882","mean_motion":12.62266572,"eccentricity":5.68e-5,"inclination_deg":51.9921,"raan_deg":219.7866,"arg_perigee_deg":110.0774,"mean_anomaly_deg":268.4068,"bstar":2.3938e-5,"rev_number":68788,"period_min":114.08049867932,"perigee_km":1413.1604579314,"apogee_km":1414.0455995987,"semimajor_km":7791.7400287651,"source":"CELESTRAK","updated_at":"2026-05-25T13:38:23.043772Z"}}